This is the latest recevied weather packets stored in our database for station/object YN1JLX-13. If no packets are shown the sender has not sent any weather packets the latest 10 day(s).
| Time | Temp. | Humidity | Pressure | Rain* | Wind** | Luminosity | Snow |
|---|---|---|---|---|---|---|---|
| 1777935869 | 27.78° C | 54% | 1007 hPa | 0 mm | - | - | - |
| 1777935269 | 27.22° C | 54% | 1007 hPa | 0 mm | - | - | - |
| 1777934669 | 27.22° C | 54% | 1007 hPa | 0 mm | - | - | - |
| 1777934069 | 27.78° C | 54% | 1007 hPa | 0 mm | - | - | - |
| 1777933468 | 28.33° C | 54% | 1007 hPa | 0 mm | - | - | - |
| 1777932868 | 27.22° C | 40% | 1007 hPa | 0 mm | - | - | - |
| 1777932267 | 28.33° C | 36% | 1007 hPa | 0 mm | - | - | - |
| 1777931667 | 27.22° C | 36% | 1007 hPa | 0 mm | - | - | - |
| 1777931067 | 28.33° C | 36% | 1007 hPa | 0 mm | - | - | - |
| 1777930467 | 28.33° C | 36% | 1007 hPa | 0 mm | - | - | - |
| 1777929866 | 28.33° C | 35% | 1008 hPa | 0 mm | - | - | - |
| 1777929266 | 29.44° C | 35% | 1008 hPa | 0 mm | - | - | - |
| 1777928665 | 28.89° C | 35% | 1008 hPa | 0 mm | - | - | - |
| 1777928065 | 30° C | 35% | 1008 hPa | 0 mm | - | - | - |
| 1777927465 | 28.33° C | 39% | 1008 hPa | 0 mm | - | - | - |
| 1777926865 | 28.33° C | 39% | 1008 hPa | 0 mm | - | - | - |
| 1777926264 | 28.89° C | 38% | 1008 hPa | 0 mm | - | - | - |
| 1777925663 | 28.89° C | 38% | 1008 hPa | 0 mm | - | - | - |
| 1777925063 | 28.89° C | 38% | 1008 hPa | 0 mm | - | - | - |
| 1777924463 | 28.89° C | 38% | 1008 hPa | 0 mm | - | - | - |
| 1777923862 | 28.89° C | 37% | 1009 hPa | 0 mm | - | - | - |
| 1777923262 | 29.44° C | 36% | 1009 hPa | 0 mm | - | - | - |
| 1777922662 | 28.33° C | 39% | 1010 hPa | 0 mm | - | - | - |
| 1777922061 | 28.33° C | 39% | 1010 hPa | 0 mm | - | - | - |
| 1777921461 | 28.33° C | 39% | 1010 hPa | 0 mm | - | - | - |
* Rain latest hour (hover to see other rain measurements)
** Current wind speed in m/s (hover to see current wind gust speed)